Details From YPAD - Adelaide Intl
To YAYE - Ayers Rock (connellan)
Flight Number -
Tags Decoded
Created
Modified
Stats Distance 739 nm / 1,368 km
Max Altitude 0 ft / 0 m
Waypoints 6
Social Downloads 2
Likes 0
Share VATSIM

Download

Looking for another format? Having issues loading an existing format? Contact us
Advertisement - Login to hide

Notes

Decoded

Route

YPAD ARS AKDAV RUSAD ISMOR YAYE

ID Type Via Altitude Latitude Longitude Leg Dist Tot Dist Heading (true) Name
O YPAD APT - 0 ft / 0 m -34.94168˚ 138.54233˚ - 0 nm - -
ARS VOR - 0 ft / 0 m -34.41653˚ 137.89332˚ 44 nm 44 nm 314° / 315° ARDROSSAN VOR
AKDAV FIX - 0 ft / 0 m -33.02959˚ 136.20357˚ 118 nm 163 nm 314° / 315° -
RUSAD FIX - 0 ft / 0 m -30.81944˚ 133.67306˚ 185 nm 348 nm 315° / 316° -
ISMOR FIX - 0 ft / 0 m -28.50306˚ 131.19694˚ 189 nm 538 nm 316° / 318° -
O YAYE APT - 0 ft / 0 m -25.17811˚ 130.96656˚ 200 nm 738 nm 356° / 357° -

Altitude Profile

Advertisement - Login to hide

Weather


0- 5 10 15 20 25 30 35+ Temperature / ° C

Clouds and Precipitation
Forecast for 2017-12-15 06:00 UTC. Updated an hour ago

Ground ~20,000 ft ~40,000 ft Winds

YPAD

Details ICAO YPAD (ADL)
Name Adelaide Intl
Region Australia
Timezone Australia/Adelaide (UTC+10.5)
Stats Elevation 20 ft / 6 m (AMSL)
Location -34.947439° 138.529850°
Runways 2
Magnetic Variation 7.927° E

METAR

YPAD 150430Z 22011KT 9999 FEW045 22/10 Q1012 NOSIG

Decode

TAF

TAF YPAD 142307Z 1500/1606 23010KT CAVOK FM151000 15006KT CAVOK FM151800 VRB05KT CAVOK FM160100 22014KT CAVOK

Decode

Departure Runways

ID Width Length Bearing (true) Bearing (mag) Surface Threshold Offset Overrun Length
05 151 ft / 46 m 10,173 ft / 3,101 m 50.14° 42.21° Asphalt 518 ft / 158 m 0 ft / 0 m
12 151 ft / 46 m 5,414 ft / 1,650 m 123.61° 115.68° Asphalt 0 ft / 0 m 0 ft / 0 m
23 151 ft / 46 m 10,173 ft / 3,101 m 230.13° 222.20° Asphalt 0 ft / 0 m 203 ft / 62 m
30 151 ft / 46 m 5,414 ft / 1,650 m 303.60° 295.67° Asphalt 0 ft / 0 m 0 ft / 0 m

YAYE

Details ICAO YAYE (AYQ)
Name Ayers Rock
Region Australia
Timezone Australia/Darwin (UTC+9.5)
Stats Elevation 1,625 ft / 495 m (AMSL)
Location -25.185555° 130.976642°
Runways 1
Magnetic Variation 3.930° E

METAR

YAYE 150400Z AUTO 04004KT 330V130 9999 // SCT085 36/13 Q1009

Decode

TAF

Not found

Destination Runways

ID Width Length Bearing (true) Bearing (mag) Surface Threshold Offset Overrun Length
13 98 ft / 30 m 8,526 ft / 2,599 m 129.70° 125.77° Asphalt 0 ft / 0 m 0 ft / 0 m
31 98 ft / 30 m 8,526 ft / 2,599 m 309.70° 305.77° Asphalt 0 ft / 0 m 0 ft / 0 m

Popular Alternatives